Volver al catálogo

STARLINK-32317

ActivoComunicacionesVLEO
NORAD 60918·PAYLOAD·🇺🇸 United States

Lanzado Aug 31, 2024 desde Cape Canaveral Space Force Station

Loading…

Próximos Pases (próximas 24 horas)

TLE

ActualizadoSource: CelesTrak SupGP

Época: Sep 15, 2026, 02:11 UTC

1 60918C 24154R   26258.09145833  .00035612  00000+0  10522-2 0  2582
2 60918  53.1576 123.1830 0001263  85.9049   3.1390 15.34370988    13

Sigue STARLINK-32317 en tiempo real con AllMySat

Download on the App Store